,,PA_Meas_PMT16A,,PR_Meas_QMR101_102,,RH_Meas_QMH101,,SR_Meas_QMS101,,TA_Meas_QMH101,,GenWind,,GenWind,
time,status,PA,status,PR,status,RH,status,SR,status,TA,status,DirAvg,status,SpdAvg,
2010-09-06, 00:00:04,VALID,918.715,VALID,0,VALID,95.0716,VALID,0,VALID,20.2668,VALID,106,VALID,0.890234,
2010-09-06, 00:01:04,VALID,918.699,VALID,0,VALID,95.3689,VALID,0,VALID,20.3058,VALID,106,VALID,0.906641,
2010-09-06, 00:02:04,VALID,918.724,VALID,0,VALID,95.3994,VALID,0,VALID,20.3253,VALID,106,VALID,0.685156,
2010-09-06, 00:03:04,VALID,918.715,VALID,0,VALID,95.3384,VALID,0,VALID,20.3043,VALID,106,VALID,0.48125,
2010-09-06, 00:04:04,VALID,918.685,VALID,0,VALID,95.3613,VALID,0,VALID,20.3253,VALID,106,VALID,0.344531,
2010-09-06, 00:05:04,VALID,918.65,VALID,0,VALID,95.3613,VALID,0,VALID,20.3643,VALID,106,VALID,0.435156,
2010-09-06, 00:06:04,VALID,918.61,VALID,0,VALID,95.2698,VALID,0,VALID,20.3253,VALID,106,VALID,0.557031,
2010-09-06, 00:07:04,VALID,918.556,VALID,0,VALID,95.2393,VALID,0,VALID,20.3448,VALID,106,VALID,0.564844,
2010-09-06, 00:08:04,VALID,918.555,VALID,0,VALID,95.2317,VALID,0.107441,VALID,20.3238,VALID,106,VALID,0.323438,
2010-09-06, 00:09:04,VALID,918.531,VALID,0,VALID,95.2927,VALID,0,VALID,20.3253,VALID,106,VALID,0.482422,
2010-09-06, 00:10:04,VALID,918.526,VALID,0,VALID,95.2851,VALID,0,VALID,20.3253,VALID,106,VALID,0.0492188,
2010-09-06, 00:11:04,VALID,918.508,VALID,0,VALID,95.3003,VALID,0,VALID,20.3043,VALID,106,VALID,0.339844,
2010-09-06, 00:12:04,VALID,918.483,VALID,0,VALID,95.125,VALID,0,VALID,20.2863,VALID,106,VALID,0.451562,
2010-09-06, 00:13:04,VALID,918.478,VALID,0,VALID,95.0564,VALID,0,VALID,20.2668,VALID,106,VALID,0.200781,
2010-09-06, 00:14:04,VALID,918.476,VALID,0,VALID,95.1936,VALID,0,VALID,20.2473,VALID,106,VALID,0.321094,
2010-09-06, 00:15:04,VALID,918.499,VALID,0,VALID,95.3308,VALID,0,VALID,20.2668,VALID,106,VALID,0.45,
2010-09-06, 00:16:04,VALID,918.493,VALID,0,VALID,95.4604,VALID,0,VALID,20.2668,VALID,106,VALID,0.421094,
2010-09-06, 00:17:04,VALID,918.509,VALID,0,VALID,95.5062,VALID,0,VALID,20.2668,VALID,106,VALID,0.569141,
2010-09-06, 00:18:04,VALID,918.494,VALID,0,VALID,95.5443,VALID,0,VALID,20.2863,VALID,106,VALID,0.554688,
2010-09-06, 00:19:04,VALID,918.519,VALID,0,VALID,95.5595,VALID,0,VALID,20.3058,VALID,106,VALID,0.699219,
2010-09-06, 00:20:04,VALID,918.488,VALID,0,VALID,95.4757,VALID,0,VALID,20.3253,VALID,106,VALID,0.971094,
2010-09-06, 00:21:04,VALID,918.515,VALID,0,VALID,95.2927,VALID,0,VALID,20.3253,VALID,106,VALID,0.488281,
2010-09-06, 00:22:04,VALID,918.511,VALID,0,VALID,95.1707,VALID,0,VALID,20.3464,VALID,106,VALID,0.285547,
2010-09-06, 00:23:04,VALID,918.519,VALID,0,VALID,95.0792,VALID,0,VALID,20.3253,VALID,106,VALID,0.463281,
2010-09-06, 00:24:04,VALID,918.504,VALID,0,VALID,94.9725,VALID,0,VALID,20.3448,VALID,107,VALID,0.657031,
2010-09-06, 00:25:04,VALID,918.463,VALID,0,VALID,94.8887,VALID,0,VALID,20.3058,VALID,106,VALID,0.456641,
2010-09-06, 00:26:04,VALID,918.454,VALID,0,VALID,94.8429,VALID,0,VALID,20.3253,VALID,106,VALID,0.470703,
2010-09-06, 00:27:04,VALID,918.454,VALID,0,VALID,94.7667,VALID,0,VALID,20.3253,VALID,106,VALID,0.446484,
2010-09-06, 00:28:04,VALID,918.444,VALID,0,VALID,94.7591,VALID,0,VALID,20.3253,VALID,106,VALID,0.545313,
2010-09-06, 00:29:04,VALID,918.416,VALID,0,VALID,94.7743,VALID,0,VALID,20.3253,VALID,106,VALID,0.541016,
2010-09-06, 00:30:04,VALID,918.397,VALID,0,VALID,94.8353,VALID,0,VALID,20.3253,VALID,106,VALID,0.510547,
2010-09-06, 00:31:04,VALID,918.384,VALID,0,VALID,94.8734,VALID,0,VALID,20.3253,VALID,106,VALID,0.43125,
2010-09-06, 00:32:04,VALID,918.359,VALID,0,VALID,94.9115,VALID,0,VALID,20.3448,VALID,106,VALID,0.547266,
2010-09-06, 00:33:04,VALID,918.354,VALID,0,VALID,94.9268,VALID,0,VALID,20.3448,VALID,106,VALID,0.425391,
2010-09-06, 00:34:04,VALID,918.372,VALID,0,VALID,94.9573,VALID,0,VALID,20.3838,VALID,106,VALID,0.473828,
2010-09-06, 00:35:04,VALID,918.337,VALID,0,VALID,94.9192,VALID,0,VALID,20.3838,VALID,106,VALID,0.495703,
2010-09-06, 00:36:04,VALID,918.371,VALID,0,VALID,94.8048,VALID,0,VALID,20.3823,VALID,106,VALID,0.5625,
2010-09-06, 00:37:04,VALID,918.357,VALID,0,VALID,94.8505,VALID,0,VALID,20.3838,VALID,106,VALID,0.611328,
2010-09-06, 00:38:04,VALID,918.368,VALID,0,VALID,94.8582,VALID,0,VALID,20.3643,VALID,106,VALID,0.525,
2010-09-06, 00:39:04,VALID,918.387,VALID,0,VALID,94.8963,VALID,0,VALID,20.3628,VALID,106,VALID,0.569141,
2010-09-06, 00:40:04,VALID,918.387,VALID,0,VALID,94.9344,VALID,0,VALID,20.3838,VALID,106,VALID,0.582812,
2010-09-06, 00:41:04,VALID,918.402,VALID,0,VALID,94.6295,VALID,0,VALID,20.3448,VALID,106,VALID,0.505469,
2010-09-06, 00:42:04,VALID,918.414,VALID,0,VALID,94.4541,VALID,0,VALID,20.3058,VALID,106,VALID,0.588281,
2010-09-06, 00:43:04,VALID,918.428,VALID,0,VALID,94.7286,VALID,0,VALID,20.2863,VALID,106,VALID,0.7,
2010-09-06, 00:44:04,VALID,918.45,VALID,0,VALID,94.942,VALID,0,VALID,20.2653,VALID,106,VALID,0.813281,
2010-09-06, 00:45:04,VALID,918.444,VALID,0,VALID,95.0716,VALID,0,VALID,20.2848,VALID,106,VALID,0.775,
2010-09-06, 00:46:04,VALID,918.457,VALID,0,VALID,94.9954,VALID,0,VALID,20.3058,VALID,106,VALID,0.504687,
2010-09-06, 00:47:04,VALID,918.443,VALID,0,VALID,94.9496,VALID,0,VALID,20.3253,VALID,106,VALID,0.680078,
2010-09-06, 00:48:04,VALID,918.414,VALID,0,VALID,94.8734,VALID,0,VALID,20.3448,VALID,106,VALID,0.477344,
2010-09-06, 00:49:04,VALID,918.407,VALID,0,VALID,94.8429,VALID,0,VALID,20.3448,VALID,106,VALID,0.214062,
2010-09-06, 00:50:04,VALID,918.43,VALID,0,VALID,94.6218,VALID,0,VALID,20.3058,VALID,106,VALID,0,
2010-09-06, 00:51:04,VALID,918.395,VALID,0,VALID,94.4846,VALID,0,VALID,20.3058,VALID,106,VALID,0,
2010-09-06, 00:52:04,VALID,918.408,VALID,0,VALID,94.3474,VALID,0,VALID,20.2863,VALID,106,VALID,0,
2010-09-06, 00:53:04,VALID,918.365,VALID,0,VALID,94.3321,VALID,0,VALID,20.2863,VALID,106,VALID,0,
2010-09-06, 00:54:04,VALID,918.37,VALID,0,VALID,94.4389,VALID,0,VALID,20.3058,VALID,106,VALID,0,
2010-09-06, 00:55:04,VALID,918.356,VALID,0,VALID,94.4617,VALID,0,VALID,20.3058,VALID,106,VALID,0,
2010-09-06, 00:56:04,VALID,918.339,VALID,0,VALID,94.4617,VALID,0,VALID,20.3058,VALID,106,VALID,0.137891,
2010-09-06, 00:57:04,VALID,918.347,VALID,0,VALID,94.5227,VALID,0,VALID,20.3058,VALID,106,VALID,0.330078,
2010-09-06, 00:58:04,VALID,918.304,VALID,0,VALID,94.6676,VALID,0,VALID,20.3253,VALID,107,VALID,0.334766,
2010-09-06, 00:59:04,VALID,918.291,VALID,0,VALID,94.7819,VALID,0,VALID,20.3253,VALID,106,VALID,0.285156,
2010-09-06, 01:00:04,VALID,918.275,VALID,0,VALID,94.7972,VALID,0,VALID,20.3643,VALID,106,VALID,0.361719,
2010-09-06, 01:01:04,VALID,918.247,VALID,0,VALID,94.82,VALID,0,VALID,20.3643,VALID,107,VALID,0.142969,
2010-09-06, 01:02:04,VALID,918.233,VALID,0,VALID,94.7972,VALID,0,VALID,20.3643,VALID,106,VALID,0.388281,
2010-09-06, 01:03:04,VALID,918.198,VALID,0,VALID,94.7591,VALID,0,VALID,20.3838,VALID,106,VALID,0.3625,
2010-09-06, 01:04:04,VALID,918.182,VALID,0,VALID,94.7591,VALID,0,VALID,20.3838,VALID,107,VALID,0.509375,
2010-09-06, 01:05:04,VALID,918.178,VALID,0,VALID,94.7819,VALID,0,VALID,20.3643,VALID,106,VALID,0.599609,
2010-09-06, 01:06:04,VALID,918.156,VALID,0,VALID,94.8582,VALID,0,VALID,20.3659,VALID,106,VALID,0.625781,
2010-09-06, 01:07:04,VALID,918.164,VALID,0,VALID,94.942,VALID,0,VALID,20.3448,VALID,106,VALID,0.677734,
2010-09-06, 01:08:04,VALID,918.145,VALID,0,VALID,94.9496,VALID,0,VALID,20.3448,VALID,106,VALID,0.451562,
2010-09-06, 01:09:04,VALID,918.117,VALID,0,VALID,95.003,VALID,0,VALID,20.3448,VALID,106,VALID,0.358594,
2010-09-06, 01:10:04,VALID,918.108,VALID,0,VALID,95.0564,VALID,0,VALID,20.3643,VALID,106,VALID,0.401563,
2010-09-06, 01:11:04,VALID,918.076,VALID,0,VALID,95.0411,VALID,0,VALID,20.3643,VALID,106,VALID,0.267578,
2010-09-06, 01:12:04,VALID,918.052,VALID,0,VALID,95.0259,VALID,0,VALID,20.3643,VALID,106,VALID,0.417578,
2010-09-06, 01:13:04,VALID,918.035,VALID,0,VALID,94.9878,VALID,0,VALID,20.4033,VALID,106,VALID,0.327734,
2010-09-06, 01:14:04,VALID,917.993,VALID,0,VALID,94.9954,VALID,0,VALID,20.4228,VALID,106,VALID,0.445703,
2010-09-06, 01:15:04,VALID,917.966,VALID,0,VALID,94.9496,VALID,0,VALID,20.4228,VALID,106,VALID,0.446094,
2010-09-06, 01:16:04,VALID,917.964,VALID,0,VALID,94.9115,VALID,0,VALID,20.4423,VALID,106,VALID,0.478906,
2010-09-06, 01:17:04,VALID,917.939,VALID,0,VALID,94.8505,VALID,0,VALID,20.4228,VALID,106,VALID,0.480078,
2010-09-06, 01:18:04,VALID,917.943,VALID,0,VALID,94.8429,VALID,0,VALID,20.4228,VALID,106,VALID,0.585938,
2010-09-06, 01:19:04,VALID,917.933,VALID,0,VALID,94.8353,VALID,0,VALID,20.4423,VALID,106,VALID,0.348047,
2010-09-06, 01:20:04,VALID,917.921,VALID,0,VALID,94.7896,VALID,0,VALID,20.4423,VALID,106,VALID,0.573047,
2010-09-06, 01:21:04,VALID,917.923,VALID,0,VALID,94.6981,VALID,0,VALID,20.4228,VALID,106,VALID,0.367188,
2010-09-06, 01:22:04,VALID,917.916,VALID,0,VALID,94.7133,VALID,0,VALID,20.3838,VALID,106,VALID,0.559766,
2010-09-06, 01:23:04,VALID,917.911,VALID,0,VALID,94.7057,VALID,0,VALID,20.3643,VALID,107,VALID,0.5125,
2010-09-06, 01:24:04,VALID,917.866,VALID,0,VALID,94.7362,VALID,0,VALID,20.3659,VALID,106,VALID,0.521094,
2010-09-06, 01:25:04,VALID,917.871,VALID,0,VALID,94.7819,VALID,0,VALID,20.3253,VALID,107,VALID,0.798437,
2010-09-06, 01:26:04,VALID,917.839,VALID,0,VALID,94.7896,VALID,0,VALID,20.2863,VALID,106,VALID,0.846484,
2010-09-06, 01:27:04,VALID,917.832,VALID,0,VALID,94.9954,VALID,0,VALID,20.3074,VALID,106,VALID,0.944141,
2010-09-06, 01:28:04,VALID,917.828,VALID,0,VALID,95.0792,VALID,0,VALID,20.2668,VALID,106,VALID,0.874609,
2010-09-06, 01:29:04,VALID,917.79,VALID,0,VALID,95.1174,VALID,0,VALID,20.2668,VALID,106,VALID,0.712891,
2010-09-06, 01:30:04,VALID,917.771,VALID,0,VALID,95.1326,VALID,0,VALID,20.2668,VALID,107,VALID,0.512109,
2010-09-06, 01:31:04,VALID,917.811,VALID,0,VALID,95.0945,VALID,0,VALID,20.2473,VALID,106,VALID,0.562891,
2010-09-06, 01:32:04,VALID,917.772,VALID,0,VALID,95.1174,VALID,0,VALID,20.2473,VALID,107,VALID,0.316797,
2010-09-06, 01:33:04,VALID,917.785,VALID,0,VALID,95.1707,VALID,0,VALID,20.2473,VALID,106,VALID,0.576563,
2010-09-06, 01:34:04,VALID,917.785,VALID,0,VALID,95.247,VALID,0,VALID,20.2473,VALID,106,VALID,0.548047,
2010-09-06, 01:35:04,VALID,917.769,VALID,0,VALID,95.2241,VALID,0,VALID,20.2473,VALID,106,VALID,0.438672,
2010-09-06, 01:36:04,VALID,917.788,VALID,0,VALID,95.2393,VALID,0,VALID,20.2278,VALID,106,VALID,0.290625,
2010-09-06, 01:37:04,VALID,917.762,VALID,0,VALID,95.2165,VALID,0,VALID,20.2278,VALID,106,VALID,0.163281,
2010-09-06, 01:38:04,VALID,917.735,VALID,0,VALID,95.2088,VALID,0,VALID,20.2278,VALID,106,VALID,0,
2010-09-06, 01:39:04,VALID,917.739,VALID,0,VALID,95.186,VALID,0,VALID,20.2083,VALID,106,VALID,0,
2010-09-06, 01:40:04,VALID,917.727,VALID,0,VALID,95.2088,VALID,0,VALID,20.2293,VALID,107,VALID,0,
2010-09-06, 01:41:04,VALID,917.706,VALID,0,VALID,95.2546,VALID,0,VALID,20.2458,VALID,106,VALID,0,
2010-09-06, 01:42:04,VALID,917.708,VALID,0,VALID,95.2241,VALID,0,VALID,20.2458,VALID,106,VALID,0,
2010-09-06, 01:43:04,VALID,917.683,VALID,0,VALID,95.1936,VALID,0.107441,VALID,20.2458,VALID,106,VALID,0,
2010-09-06, 01:44:04,VALID,917.644,VALID,0,VALID,95.1097,VALID,0,VALID,20.2668,VALID,106,VALID,0,
2010-09-06, 01:45:04,VALID,917.658,VALID,0,VALID,95.0564,VALID,0.107441,VALID,20.2653,VALID,106,VALID,0,
2010-09-06, 01:46:04,VALID,917.653,VALID,0,VALID,95.0106,VALID,0.107441,VALID,20.2458,VALID,106,VALID,0,
2010-09-06, 01:47:04,VALID,917.634,VALID,0,VALID,95.0183,VALID,0,VALID,20.3058,VALID,106,VALID,0.24375,
2010-09-06, 01:48:04,VALID,917.663,VALID,0,VALID,95.0106,VALID,0,VALID,20.2863,VALID,106,VALID,0.0628906,
2010-09-06, 01:49:04,VALID,917.638,VALID,0,VALID,94.9801,VALID,0.107441,VALID,20.3058,VALID,106,VALID,0.357031,
2010-09-06, 01:50:04,VALID,917.61,VALID,0,VALID,94.9344,VALID,0.107441,VALID,20.2848,VALID,106,VALID,0.269141,
2010-09-06, 01:51:04,VALID,917.59,VALID,0,VALID,94.8734,VALID,0.107441,VALID,20.2848,VALID,106,VALID,0.125391,
2010-09-06, 01:52:04,VALID,917.619,VALID,0,VALID,94.7209,VALID,0.107441,VALID,20.2458,VALID,106,VALID,0.319922,
2010-09-06, 01:53:04,VALID,917.579,VALID,0,VALID,94.599,VALID,0.107441,VALID,20.2068,VALID,106,VALID,0.314844,
2010-09-06, 01:54:04,VALID,917.577,VALID,0,VALID,94.5685,VALID,0.107441,VALID,20.1678,VALID,106,VALID,0.407813,
2010-09-06, 01:55:04,VALID,917.591,VALID,0,VALID,94.6523,VALID,0.107441,VALID,20.1483,VALID,106,VALID,0.544922,
2010-09-06, 01:56:04,VALID,917.581,VALID,0,VALID,94.5151,VALID,0,VALID,20.1123,VALID,106,VALID,0.630469,
2010-09-06, 01:57:04,VALID,917.56,VALID,0,VALID,94.8582,VALID,0,VALID,20.0928,VALID,106,VALID,0.703516,
2010-09-06, 01:58:04,VALID,917.541,VALID,0,VALID,95.0183,VALID,0,VALID,20.0328,VALID,106,VALID,0.644141,
2010-09-06, 01:59:04,VALID,917.517,VALID,0,VALID,95.0945,VALID,0,VALID,20.0148,VALID,106,VALID,0.726172,
2010-09-06, 02:00:04,VALID,917.531,VALID,0,VALID,95.186,VALID,0,VALID,20.0148,VALID,106,VALID,0.806641,
2010-09-06, 02:01:04,VALID,917.518,VALID,0,VALID,95.2241,VALID,0,VALID,19.9743,VALID,106,VALID,0.832031,
2010-09-06, 02:02:04,VALID,917.476,VALID,0,VALID,95.3537,VALID,0,VALID,19.9758,VALID,106,VALID,0.732031,
2010-09-06, 02:03:04,VALID,917.473,VALID,0,VALID,95.4757,VALID,0,VALID,19.9758,VALID,106,VALID,0.763672,
2010-09-06, 02:04:04,VALID,917.473,VALID,0,VALID,95.5595,VALID,0,VALID,19.9548,VALID,106,VALID,0.604688,
2010-09-06, 02:05:04,VALID,917.444,VALID,0,VALID,95.6053,VALID,0,VALID,19.9548,VALID,106,VALID,0.633203,
2010-09-06, 02:06:04,VALID,917.401,VALID,0,VALID,95.6662,VALID,0,VALID,19.9758,VALID,106,VALID,0.611719,
2010-09-06, 02:07:04,VALID,917.416,VALID,0,VALID,95.7272,VALID,0,VALID,19.9548,VALID,106,VALID,0.825391,
2010-09-06, 02:08:04,VALID,917.375,VALID,0,VALID,95.7501,VALID,0,VALID,19.9563,VALID,106,VALID,0.648047,
2010-09-06, 02:09:04,VALID,917.376,VALID,0,VALID,95.773,VALID,0,VALID,19.9563,VALID,106,VALID,0.793359,
2010-09-06, 02:10:04,VALID,917.386,VALID,0,VALID,95.7958,VALID,0,VALID,19.9563,VALID,107,VALID,0.814844,
2010-09-06, 02:11:04,VALID,917.396,VALID,0,VALID,95.7882,VALID,0.107441,VALID,19.9533,VALID,106,VALID,0.814844,
2010-09-06, 02:12:04,VALID,917.367,VALID,0,VALID,95.7958,VALID,0,VALID,19.9743,VALID,106,VALID,0.680078,
2010-09-06, 02:13:04,VALID,917.332,VALID,0,VALID,95.8263,VALID,0.107441,VALID,19.9938,VALID,106,VALID,0.475391,
2010-09-06, 02:14:04,VALID,917.34,VALID,0,VALID,95.8416,VALID,0.107441,VALID,19.9728,VALID,106,VALID,0.221875,
2010-09-06, 02:15:04,VALID,917.333,VALID,0,VALID,95.8035,VALID,0.107441,VALID,19.9938,VALID,106,VALID,0.523828,
2010-09-06, 02:16:04,VALID,917.312,VALID,0,VALID,95.7577,VALID,0,VALID,19.9938,VALID,106,VALID,0.142188,
2010-09-06, 02:17:04,VALID,917.31,VALID,0,VALID,95.7196,VALID,0,VALID,20.0133,VALID,107,VALID,0.482031,
2010-09-06, 02:18:04,VALID,917.275,VALID,0,VALID,95.7577,VALID,0.107441,VALID,20.0328,VALID,106,VALID,0.690234,
2010-09-06, 02:19:04,VALID,917.273,VALID,0,VALID,95.7958,VALID,0,VALID,20.0133,VALID,106,VALID,0.678125,
2010-09-06, 02:20:04,VALID,917.286,VALID,0,VALID,95.8111,VALID,0,VALID,20.0328,VALID,106,VALID,0.612109,
2010-09-06, 02:21:04,VALID,917.276,VALID,0,VALID,95.8187,VALID,0,VALID,20.0118,VALID,106,VALID,0.626562,
2010-09-06, 02:22:04,VALID,917.269,VALID,0,VALID,95.8263,VALID,0,VALID,20.0133,VALID,106,VALID,0.614453,
2010-09-06, 02:23:04,VALID,917.27,VALID,0,VALID,95.8263,VALID,0,VALID,20.0133,VALID,106,VALID,0.460547,
2010-09-06, 02:24:04,VALID,917.26,VALID,0,VALID,95.8416,VALID,0,VALID,20.0133,VALID,106,VALID,0.442187,
2010-09-06, 02:25:04,VALID,917.305,VALID,0,VALID,95.8187,VALID,0,VALID,19.9728,VALID,106,VALID,0.466016,
2010-09-06, 02:26:04,VALID,917.29,VALID,0,VALID,95.8111,VALID,0,VALID,19.9938,VALID,106,VALID,0.497266,
2010-09-06, 02:27:04,VALID,917.312,VALID,0,VALID,95.834,VALID,0,VALID,19.9743,VALID,106,VALID,0.660156,
2010-09-06, 02:28:04,VALID,917.312,VALID,0,VALID,95.895,VALID,0,VALID,19.9743,VALID,106,VALID,1.03359,
2010-09-06, 02:29:04,VALID,917.31,VALID,0,VALID,95.895,VALID,0,VALID,19.9548,VALID,106,VALID,0.738672,
2010-09-06, 02:30:04,VALID,917.326,VALID,0,VALID,95.9026,VALID,0.107441,VALID,19.9548,VALID,106,VALID,0.666406,
2010-09-06, 02:31:04,VALID,917.301,VALID,0,VALID,95.9483,VALID,0,VALID,19.9353,VALID,106,VALID,0.55,
2010-09-06, 02:32:04,VALID,917.299,VALID,0,VALID,95.9712,VALID,0,VALID,19.9158,VALID,106,VALID,0.573828,
2010-09-06, 02:33:04,VALID,917.272,VALID,0,VALID,96.0322,VALID,0,VALID,19.9353,VALID,106,VALID,0.777344,
2010-09-06, 02:34:04,VALID,917.272,VALID,0,VALID,96.0779,VALID,0,VALID,19.9143,VALID,106,VALID,0.882422,
2010-09-06, 02:35:04,VALID,917.281,VALID,0,VALID,96.1008,VALID,0.107441,VALID,19.8948,VALID,106,VALID,0.515234,
2010-09-06, 02:36:04,VALID,917.266,VALID,0,VALID,96.177,VALID,0.107441,VALID,19.8963,VALID,106,VALID,0.931641,
2010-09-06, 02:37:04,VALID,917.242,VALID,0,VALID,96.1923,VALID,0.107441,VALID,19.9158,VALID,106,VALID,0.896875,
2010-09-06, 02:38:04,VALID,917.266,VALID,0,VALID,96.2228,VALID,0,VALID,19.8753,VALID,106,VALID,0.995313,
2010-09-06, 02:39:04,VALID,917.249,VALID,0,VALID,96.2685,VALID,0,VALID,19.8768,VALID,106,VALID,0.955469,
2010-09-06, 02:40:04,VALID,917.231,VALID,0,VALID,96.2837,VALID,0.107441,VALID,19.8948,VALID,106,VALID,0.865234,
2010-09-06, 02:41:04,VALID,917.258,VALID,0,VALID,96.2914,VALID,0.107441,VALID,19.8753,VALID,106,VALID,0.810938,
2010-09-06, 02:42:04,VALID,917.187,VALID,0,VALID,96.3066,VALID,0,VALID,19.8963,VALID,106,VALID,0.920703,
2010-09-06, 02:43:04,VALID,917.221,VALID,0,VALID,96.3295,VALID,0,VALID,19.8963,VALID,106,VALID,0.801562,
2010-09-06, 02:44:04,VALID,917.193,VALID,0,VALID,96.3447,VALID,0,VALID,19.9353,VALID,106,VALID,0.934766,
2010-09-06, 02:45:04,VALID,917.209,VALID,0,VALID,96.3295,VALID,0.107441,VALID,19.9353,VALID,106,VALID,1.00781,
2010-09-06, 02:46:04,VALID,917.174,VALID,0,VALID,96.3142,VALID,0.107441,VALID,19.9143,VALID,106,VALID,0.957031,
2010-09-06, 02:47:04,VALID,917.218,VALID,0,VALID,96.2456,VALID,0,VALID,19.9353,VALID,106,VALID,0.717969,
2010-09-06, 02:48:04,VALID,917.21,VALID,0,VALID,96.2837,VALID,0.107441,VALID,19.9548,VALID,106,VALID,0.813672,
2010-09-06, 02:49:04,VALID,917.191,VALID,0,VALID,96.2456,VALID,0,VALID,19.9743,VALID,106,VALID,0.943359,
2010-09-06, 02:50:04,VALID,917.211,VALID,0,VALID,96.2533,VALID,0,VALID,19.9938,VALID,106,VALID,0.959766,
2010-09-06, 02:51:04,VALID,917.199,VALID,0,VALID,96.1999,VALID,0.107441,VALID,19.9923,VALID,106,VALID,0.534375,
2010-09-06, 02:52:04,VALID,917.184,VALID,0,VALID,96.1618,VALID,0,VALID,19.9923,VALID,106,VALID,0.744531,
2010-09-06, 02:53:04,VALID,917.169,VALID,0,VALID,96.1313,VALID,0,VALID,20.0328,VALID,106,VALID,0.724609,
2010-09-06, 02:54:04,VALID,917.174,VALID,0,VALID,96.0855,VALID,0,VALID,20.0328,VALID,106,VALID,0.838672,
2010-09-06, 02:55:04,VALID,917.196,VALID,0,VALID,96.0245,VALID,0.107441,VALID,20.0313,VALID,106,VALID,0.911328,
2010-09-06, 02:56:04,VALID,917.205,VALID,0,VALID,95.9636,VALID,0,VALID,20.0538,VALID,107,VALID,0.652344,
2010-09-06, 02:57:04,VALID,917.188,VALID,0,VALID,95.9407,VALID,0,VALID,20.0733,VALID,107,VALID,0.308594,
2010-09-06, 02:58:04,VALID,917.2,VALID,0,VALID,95.8721,VALID,0,VALID,20.0538,VALID,107,VALID,0.884766,
2010-09-06, 02:59:04,VALID,917.165,VALID,0,VALID,95.8416,VALID,0,VALID,20.0538,VALID,107,VALID,0.660937,
2010-09-06, 03:00:04,VALID,917.169,VALID,0,VALID,95.7806,VALID,0,VALID,20.0328,VALID,107,VALID,0.528516,
2010-09-06, 03:01:04,VALID,917.141,VALID,0,VALID,95.7577,VALID,0,VALID,20.0538,VALID,107,VALID,0.698828,
2010-09-06, 03:02:04,VALID,917.136,VALID,0,VALID,95.6967,VALID,0,VALID,20.0148,VALID,107,VALID,0.517187,
2010-09-06, 03:03:04,VALID,917.123,VALID,0,VALID,95.7196,VALID,0,VALID,19.9953,VALID,107,VALID,0.636719,
2010-09-06, 03:04:04,VALID,917.133,VALID,0,VALID,95.7425,VALID,0,VALID,20.0163,VALID,107,VALID,0.387109,
2010-09-06, 03:05:04,VALID,917.1,VALID,0,VALID,95.7806,VALID,0,VALID,19.9758,VALID,107,VALID,0.319531,
2010-09-06, 03:06:04,VALID,917.136,VALID,0,VALID,95.773,VALID,0,VALID,19.9563,VALID,107,VALID,0.396484,
2010-09-06, 03:07:04,VALID,917.129,VALID,0,VALID,95.8263,VALID,0,VALID,19.9368,VALID,108,VALID,0.430078,
2010-09-06, 03:08:04,VALID,917.131,VALID,0,VALID,95.8797,VALID,0,VALID,19.9563,VALID,107,VALID,0.325391,
2010-09-06, 03:09:04,VALID,917.109,VALID,0,VALID,95.9483,VALID,0,VALID,19.9368,VALID,108,VALID,0.460547,
2010-09-06, 03:10:04,VALID,917.115,VALID,0,VALID,95.9712,VALID,0,VALID,19.9368,VALID,108,VALID,0.516406,
2010-09-06, 03:11:04,VALID,917.095,VALID,0,VALID,95.9712,VALID,0,VALID,19.9563,VALID,108,VALID,0.773438,
2010-09-06, 03:12:04,VALID,917.093,VALID,0,VALID,95.9636,VALID,0,VALID,19.9758,VALID,108,VALID,0.841406,
2010-09-06, 03:13:04,VALID,917.087,VALID,0,VALID,95.9178,VALID,0,VALID,19.9743,VALID,108,VALID,0.697656,
2010-09-06, 03:14:04,VALID,917.102,VALID,0,VALID,95.834,VALID,0,VALID,19.9758,VALID,128,VALID,0.708203,
2010-09-06, 03:15:04,VALID,917.073,VALID,0,VALID,95.7272,VALID,0,VALID,19.9953,VALID,128,VALID,0.910547,
2010-09-06, 03:16:04,VALID,917.065,VALID,0,VALID,95.6281,VALID,0,VALID,20.0343,VALID,128,VALID,0.983594,
2010-09-06, 03:17:04,VALID,917.089,VALID,0,VALID,95.468,VALID,0,VALID,20.0343,VALID,128,VALID,0.757813,
2010-09-06, 03:18:04,VALID,917.077,VALID,0,VALID,95.3461,VALID,0,VALID,20.0733,VALID,128,VALID,0.758594,
2010-09-06, 03:19:04,VALID,917.101,VALID,0,VALID,95.247,VALID,0,VALID,20.1123,VALID,128,VALID,0.814453,
2010-09-06, 03:20:04,VALID,917.074,VALID,0,VALID,95.186,VALID,0,VALID,20.1123,VALID,128,VALID,0.846875,
2010-09-06, 03:21:04,VALID,917.082,VALID,0,VALID,95.1707,VALID,0,VALID,20.1318,VALID,128,VALID,0.588672,
2010-09-06, 03:22:04,VALID,917.097,VALID,0,VALID,95.1097,VALID,0,VALID,20.1708,VALID,128,VALID,0.541406,
2010-09-06, 03:23:04,VALID,917.083,VALID,0,VALID,95.0869,VALID,0,VALID,20.1708,VALID,128,VALID,0.228125,
2010-09-06, 03:24:04,VALID,917.112,VALID,0,VALID,95.1097,VALID,0,VALID,20.1903,VALID,128,VALID,0.767578,
2010-09-06, 03:25:04,VALID,917.111,VALID,0,VALID,95.0259,VALID,0,VALID,20.2098,VALID,128,VALID,0.0777344,
2010-09-06, 03:26:04,VALID,917.093,VALID,0,VALID,94.942,VALID,0,VALID,20.1888,VALID,128,VALID,0.464453,
2010-09-06, 03:27:04,VALID,917.103,VALID,0,VALID,94.9878,VALID,0,VALID,20.2083,VALID,128,VALID,0.882813,
2010-09-06, 03:28:04,VALID,917.088,VALID,0,VALID,95.0411,VALID,0,VALID,20.2278,VALID,128,VALID,0.572656,
2010-09-06, 03:29:04,VALID,917.07,VALID,0,VALID,95.0716,VALID,0,VALID,20.2278,VALID,128,VALID,0.539453,
2010-09-06, 03:30:04,VALID,917.068,VALID,0,VALID,95.0792,VALID,0,VALID,20.2668,VALID,128,VALID,0.227734,
2010-09-06, 03:31:04,VALID,917.075,VALID,0,VALID,95.0564,VALID,0,VALID,20.2668,VALID,128,VALID,0.338672,
2010-09-06, 03:32:04,VALID,917.082,VALID,0,VALID,95.003,VALID,0,VALID,20.2863,VALID,128,VALID,0.327344,
2010-09-06, 03:33:04,VALID,917.07,VALID,0,VALID,94.9268,VALID,0,VALID,20.2863,VALID,128,VALID,0.353125,
2010-09-06, 03:34:04,VALID,917.05,VALID,0,VALID,94.881,VALID,0,VALID,20.2863,VALID,128,VALID,0.161328,
2010-09-06, 03:35:04,VALID,917.045,VALID,0,VALID,94.8963,VALID,0,VALID,20.2863,VALID,127,VALID,0,
2010-09-06, 03:36:04,VALID,917.054,VALID,0,VALID,94.8353,VALID,0.107441,VALID,20.2863,VALID,128,VALID,0.337891,
2010-09-06, 03:37:04,VALID,917.058,VALID,0,VALID,94.7667,VALID,0.107441,VALID,20.2473,VALID,128,VALID,0.514063,
2010-09-06, 03:38:04,VALID,917.049,VALID,0,VALID,94.7972,VALID,0.107441,VALID,20.2473,VALID,128,VALID,0.213281,
2010-09-06, 03:39:04,VALID,917.076,VALID,0,VALID,94.7896,VALID,0,VALID,20.2473,VALID,127,VALID,0.247266,
2010-09-06, 03:40:04,VALID,917.028,VALID,0,VALID,94.8658,VALID,0,VALID,20.2083,VALID,127,VALID,0.328125,
2010-09-06, 03:41:04,VALID,917.042,VALID,0,VALID,94.9192,VALID,0,VALID,20.2098,VALID,127,VALID,0.258594,
2010-09-06, 03:42:04,VALID,917.029,VALID,0,VALID,94.9649,VALID,0,VALID,20.1693,VALID,128,VALID,0.319922,
2010-09-06, 03:43:04,VALID,917.001,VALID,0,VALID,95.0183,VALID,0,VALID,20.1693,VALID,128,VALID,0.489453,